Home   Weather   Mandurah   Past weeks

Flag for Australia Past Weather in Mandurah, Western Australia, Australia — Yesterday and Last 2 Weeks

Now
67 °F

Mild.


Feels Like: 67 °F
Forecast: 66 / 84 °F
Wind: 5 mph from South

Location: Mandurah Aws

Current Time: Dec 9, 2016 at 2:23:50 am

Latest Report: Dec 9, 2016 at 12:00 am


Visibility: N/A

Pressure: 29.97 "Hg

Humidity: 72%

Dew Point: 58 °F

Location of MandurahLocation

Past Weather in Mandurah — Graph

°F

Mandurah Temperature Yesterday

Maximum temperature yesterday: 78 °F (at 2:00 pm)
Minimum temperature yesterday: 55 °F (at 5:00 am)
Average temperature yesterday: 68 °F

High & Low Weather Summary for the Past Weeks

 TemperatureHumidityPressure
High95 °F (Nov 26, 2:00 pm)86% (Dec 6, 5:00 am)30.15 "Hg (Dec 6, 5:00 am)
Low55 °F (Dec 8, 5:00 am)20% (Nov 26, 2:00 pm)29.74 "Hg (Dec 3, 3:00 am)
Average70 °F54%29.96 "Hg
* Reported Nov 24 12:00 am — Dec 9 12:00 am, Mandurah, Weather by CustomWeather, © 2016

Note: Actual official high and low records may vary slightly from our data, if they occured in-between our weather recording intervals... More about our weather records

Advertising

Mandurah Weather History for the Previous 24 Hours

Scroll right to see more
 ConditionsComfort  
Time TempWeatherWind HumidityBarometerVisibility
12:00 am
Fri, Dec 9
67 °FMild.5 mph72%29.97 "HgN/A
11:00 pm
Thu, Dec 8
69 °FMild.5 mph76%29.98 "HgN/A
9:00 pm70 °FMild.5 mph62%30.00 "HgN/A
8:00 pm70 °FMild.5 mph61%30.01 "HgN/A
6:00 pm74 °FMild.9 mph47%29.98 "HgN/A
5:00 pm75 °FMild.12 mph49%29.98 "HgN/A
3:00 pm78 °FWarm.12 mph44%30.00 "HgN/A
2:00 pm78 °FWarm.12 mph43%30.01 "HgN/A
12:00 pm78 °FPleasantly warm.5 mph25%30.06 "HgN/A
11:00 am76 °FMild.3 mph27%30.10 "HgN/A
9:00 am69 °FMild.8 mph38%30.14 "HgN/A
8:00 am63 °FMild.9 mph46%30.15 "HgN/A
6:00 am56 °FRefreshingly cool.7 mph60%30.14 "HgN/A
5:00 am55 °FCool.8 mph62%30.12 "HgN/A
3:00 am58 °FRefreshingly cool.12 mph58%30.09 "HgN/A
2:00 am59 °FRefreshingly cool.12 mph58%30.09 "HgN/A
Weather by CustomWeather, © 2016

See weather overviewHow to use our weather pages